Location: Rioux
(40.7500°S, 175.7500°E)
Time: 10:09:17
(UTC+00:00)

Cosmos 1833 Rocket - Pass Details

Date: 12 June 2024
Orbit: 830 x 840 km, 71.0° (Epoch: 21 July)

Event Time Altitude Azimuth Distance (km) Brightness Sun altitude
Rises 18:56:32 0° 354° (N) 3,385 6.1 -7.9°
Reaches altitude 10° 18:59:02 10° 359° (N) 2,458 5.4 -7.5°
Maximum altitude 19:04:27 50° 73° (ENE) 1,074 3.9 -6.6°
Drops below altitude 10° 19:09:56 10° 146° (SE) 2,483 5.3 -5.6°
Sets 19:12:27 0° 151° (SSE) 3,423 5.9 -5.2°
